Regional Weather Roundup
Issued by NWS

Home | Current Version | Previous Version | Text Only | Print | Product List | Glossary Off
Versions: 1 2 3 4 5 6 7 8 9 10 11 12 13 14 15 16 17 18 19 20 21 22 23 24 25 26 27 28 29 30 31 32 33 34 35 36 37 38 39 40 41 42 43 44 45 46 47 48 49 50

000
ASUS45 KTFX 250510
RWRMT
MONTANA REGIONAL WEATHER ROUNDUP
NATIONAL WEATHER SERVICE GREAT FALLS MT
1100 PM MDT SUN MAY 24 2015

NOTE: "FAIR" INDICATES FEW OR NO CLOUDS BELOW 12000 FEET WITH NO
SIGNIFICANT WEATHER AND/OR OBSTRUCTIONS TO VISIBILITY.

MTZ001>007-043-250600-
WEST OF THE DIVIDE

CITY           SKY/WX    TMP DP  RH WIND       PRES   REMARKS
KALISPELL      MOCLDY    51  38  60 CALM      29.89S
MISSOULA       MOCLDY    58  38  47 E7        29.92S
BUTTE          CLOUDY    50  40  68 SE7       30.01S
MULLAN PASS    CLOUDY    48  38  68 NW5       29.99S
DEER LODGE       N/A     52  41  66 W7        30.02F
EUREKA           N/A     61  36  39 S6        29.86S
HAMILTON         N/A     61  37  41 CALM      29.92S
LIBBY            N/A     59  37  44 CALM      29.86S
RONAN            N/A     57  40  53 CALM      29.95S
$$

MTZ008-052>055-250600-
SOUTHWEST MONTANA

CITY           SKY/WX    TMP DP  RH WIND       PRES   REMARKS
BOZEMAN        MOCLDY    49  46  90 SW5       29.99S
DILLON         CLOUDY    50  40  68 NE9       29.97S
W YELLOWSTONE  MIX PCPN  45  41  87 NE5       30.01S
THREE FORKS      N/A     52  52 100 CALM      29.98F
TWIN BRIDGES     N/A     52  40  63 N12       29.97R
$$

MTZ009-010-012-014-046-048-049-054-250600-
EAST SLOPES AND CENTRAL MONTANA

CITY           SKY/WX    TMP DP  RH WIND       PRES   REMARKS
CUT BANK       CLEAR     53  39  59 SE6       29.97F
GREAT FALLS    CLEAR     51  43  74 SE3       29.96F
MALMSTROM AFB  CLEAR     47  44  87 S5        29.96F
HELENA         CLOUDY    54  47  77 SW6       29.96F
CONRAD           N/A     47  45  93 E1        29.99F
$$

MTZ011-013-016-021-045-047-050-051-250600-
NORTH CENTRAL MONTANA

CITY           SKY/WX    TMP DP  RH WIND       PRES   REMARKS
HAVRE          MOCLDY    51  44  77 S3        29.93F
LEWISTOWN      MOCLDY    48  44  86 S8        29.98F
N BAR RANCH    CLOUDY    50  46  87 CALM      30.00F
CHINOOK          N/A     54  46  76 SW3       29.93S
FORT BENTON      N/A     57  46  67 S6        29.95F
$$

MTZ017>020-022>027-061-062-250600-
NORTHEAST MONTANA

CITY           SKY/WX    TMP DP  RH WIND       PRES   REMARKS
GLASGOW        PTCLDY    58  42  55 SE5       29.91F
JORDAN           N/A     54  47  77 CALM      29.93S
SIDNEY         MOCLDY    55  50  82 CALM      29.92S
WOLF POINT     PTCLDY    52  45  77 N3        29.92S
MALTA            N/A     55  40  57 CALM      29.89S
POPLAR           N/A     57  50  77 CALM      29.92S
SCOBEY           N/A     57  32  39 E5        29.92S
$$

MTZ028>42-056>058-250600-
SOUTHCENTRAL AND SOUTHEAST MONTANA

CITY           SKY/WX    TMP DP  RH WIND       PRES   REMARKS
BAKER          CLOUDY    53  51  93 NW5       29.93F
BILLINGS       CLOUDY    54  47  77 VRB5      29.95S
LIVINGSTON     CLOUDY    50  46  86 SE3       29.99S
MILES CITY     CLOUDY    55  52  89 CALM      29.93F
BIG TIMBER       N/A     52  45  76 CALM      30.00F
EKALAKA          N/A     52  50  93 N5        29.91F VSB 0
FORSYTH          N/A     55  54  94 CALM      29.93F
LAUREL           N/A     53  44  71 W1        29.94F
ROUNDUP          N/A     54  44  68 CALM      29.87F
$$

REGIONAL REPORTS...DAKOTAS

CITY           SKY/WX    TMP DP  RH WIND       PRES   REMARKS
WILLISTON      PTCLDY    49  44  83 CALM      29.91F
MINOT          MOCLDY    58  46  64 CALM      29.90S
DICKINSON      CLOUDY    57  48  72 N3        29.89F
BEACH          CLOUDY    52  52 100 NW3       29.93F
CROSBY         FAIR      54  46  76 S8        29.92S
WATFORD CITY   FAIR      54  46  76 SW5       29.90S
BISMARCK       CLOUDY    57  55  93 CALM      29.90F
GRAND FORKS    CLOUDY    57  52  83 N3        29.86S
FARGO          CLOUDY    62  54  74 SE5       29.85F
BUFFALO SD       N/A     53  50  89 NE12      29.82F
RAPID CITY     CLOUDY    53  52  96 N9        29.87F
$$

REGIONAL REPORTS...WYOMING/IDAHO/WASHINGTON

CITY           SKY/WX    TMP DP  RH WIND       PRES   REMARKS
GILLETTE       CLOUDY    50  48  93 NE8       29.91R
SHERIDAN       LGT RAIN  50  49  96 NW9       29.93F
BUFFALO WY     LGT RAIN  46  45  96 SW3       29.95S FOG
CODY           CLOUDY    48  43  81 NW7       29.97F
YELLOWSTONE LA   N/A     37  34  89 CALM      30.05S
IDAHO FALLS    CLOUDY    55  47  74 S6        29.91R
SALMON         MOCLDY    55  43  62 CALM      29.91S
BOISE          CLEAR     60  45  57 SE10      29.86R
SPOKANE        CLOUDY    66  46  48 NW12      29.85R
$$

REGIONAL REPORTS...ALBERTA

CITY           SKY/WX    TMP DP  RH WIND       PRES   REMARKS
EDMONTON       PTCLDY    63  36  36 E2        29.87S
CALGARY        PTCLDY    57  36  44 S8        29.93S
LETHBRIDGE     CLEAR     48  39  71 S10       29.93F
MEDICINE HAT   CLEAR     54  41  62 SW8       29.92F
$$

REGIONAL REPORTS...SASKATCHEWAN

CITY           SKY/WX    TMP DP  RH WIND       PRES   REMARKS
SWIFT CURRENT  MOCLDY    64  30  27 SE6       29.93F
REGINA         PTCLDY    59  39  47 VRB2      29.90F
SASKATOON      PTCLDY    63  39  42 NE5       29.90F
$$



USA.gov is the U.S. government's official web portal to all federal, state and local government web resources and services.